Location: Albany
(35.0000°S, 118.0000°E)
Time: 21:42:01
(UTC-04:00)

Amateur Radio Satellites - All Passes

Search period start: 31 July 2014 21:12
Search period end: 01 August 2014 21:12
Location: Albany, 35.0000°S, 118.0000°E

Satellite Date Start Highest point End Downlink Frequencies (MHz)
Time Altitude Azimuth
ISS 31 Jul 21:16:52 21:20:12 65° 45° (NE) 21:23:34 145.800 FM
SO-50 31 Jul 21:32:03 21:35:22 20° 290° (WNW) 21:38:38 436.795 FM
UOSAT-12 31 Jul 21:35:22 21:39:13 28° 126° (SE) 21:43:03 437.025 FM, 437.400 FM
FUNcube-1 31 Jul 21:37:07 21:41:31 60° 105° (ESE) 21:46:05 145.950 - 145.970 MHz USB
HO-68 31 Jul 21:41:45 21:47:32 26° 276° (W) 21:53:25 435.675 MHz FM
RS-15 31 Jul 21:58:23 22:10:37 89° 297° (WNW) 22:22:12 29.354 - 29.394 USB, Beacon 29.352 USB
UKube-1 31 Jul 22:05:20 22:06:33 11° 272° (W) 22:07:45 145.840 MHz, 145.915 MHz
Sapphire 31 Jul 22:22:52 22:26:59 23° 74° (ENE) 22:31:08 437.095 MHz 1200 baud AX-25 AFSK
PCSat 31 Jul 22:54:39 22:59:51 50° 69° (ENE) 23:05:05 145.825 MHz
ISS 31 Jul 22:55:06 22:57:13 15° 208° (SSW) 22:59:20 145.800 FM
UOSAT-12 31 Jul 23:15:37 23:19:12 25° 292° (WNW) 23:22:48 437.025 FM, 437.400 FM
FUNcube-1 31 Jul 23:17:36 23:18:18 10° 270° (W) 23:18:59 145.950 - 145.970 MHz USB
Sapphire 01 Aug 00:04:58 00:10:05 42° 239° (WSW) 00:15:15 437.095 MHz 1200 baud AX-25 AFSK
RS-15 01 Aug 00:13:48 00:21:14 19° 279° (W) 00:28:31 29.354 - 29.394 USB, Beacon 29.352 USB
Oscar 19 01 Aug 00:29:12 00:31:36 13° 88° (E) 00:33:59 437.125 CW, 437.150 USB
PCSat 01 Aug 00:39:27 00:43:31 21° 232° (SW) 00:47:37 145.825 MHz
Oscar 16 01 Aug 00:56:26 01:00:52 28° 84° (E) 01:05:13 437.025 USB, Beacon 2401.1428
ITAMSAT 1 01 Aug 01:24:09 01:28:11 22° 85° (E) 01:32:11 435.822 SSB
JAS-1B 01 Aug 01:39:10 01:44:17 22° 83° (E) 01:49:59 435.800 - 435.900 CW/SSB
Uribyol 2 01 Aug 01:42:09 01:47:00 35° 82° (E) 01:51:46 436.500 FM
AO-27 01 Aug 01:43:36 01:48:26 35° 82° (E) 01:53:12 436.795 MHz FM
AO-Echo 01 Aug 01:57:05 02:02:03 51° 80° (E) 02:07:06 ?
TMSAT-1 01 Aug 01:59:27 02:02:00 13° 88° (E) 02:04:32 436.925 FM
Oscar 19 01 Aug 02:06:10 02:11:18 60° 254° (WSW) 02:16:21 437.125 CW, 437.150 USB
PANSAT 01 Aug 02:09:46 02:12:24 18° 17° (NNE) 02:15:03 not established
Gurwin Techsat 1B 01 Aug 02:24:00 02:28:54 35° 82° (E) 02:33:44 435.225 FM
OPAL 01 Aug 02:24:56 02:29:01 24° 115° (ESE) 02:33:07 ?
Oscar 16 01 Aug 02:35:38 02:40:08 30° 249° (WSW) 02:44:34 437.025 USB, Beacon 2401.1428
AO-7 01 Aug 02:46:48 02:49:09 11° 90° (E) 02:51:29 29.400 - 29.500 MHz
ITAMSAT 1 01 Aug 03:02:52 03:07:45 39° 251° (WSW) 03:12:36 435.822 SSB
Uribyol 2 01 Aug 03:22:01 03:26:14 25° 247° (WSW) 03:30:25 436.500 FM
AO-27 01 Aug 03:23:29 03:27:43 25° 247° (WSW) 03:31:56 436.795 MHz FM
KITSAT 1 01 Aug 03:24:35 03:29:52 19° 78° (ENE) 03:35:10 435.175 FM
JAS-1B 01 Aug 03:28:37 03:34:59 57° 253° (WSW) 03:42:29 435.800 - 435.900 CW/SSB
TMSAT-1 01 Aug 03:36:59 03:42:18 63° 254° (WSW) 03:47:33 436.925 FM
AO-Echo 01 Aug 03:37:11 03:40:24 17° 246° (WSW) 03:43:38 ?
PANSAT 01 Aug 03:48:42 03:52:07 30° 4° (N) 03:55:33 not established
ISS 01 Aug 03:48:46 03:51:24 21° 148° (SSE) 03:54:01 145.800 FM
Uosat F 01 Aug 03:57:20 04:02:10 42° 81° (E) 04:06:57 435.120 FM
OPAL 01 Aug 04:02:45 04:07:36 39° 280° (W) 04:12:31 ?
Gurwin Techsat 1B 01 Aug 04:04:18 04:08:38 26° 248° (WSW) 04:12:57 435.225 FM
AO-7 01 Aug 04:34:34 04:43:00 76° 74° (ENE) 04:51:22 29.400 - 29.500 MHz
STRAND 1 01 Aug 04:54:39 04:57:33 15° 116° (ESE) 05:00:28 ?
JAS-2 01 Aug 05:08:40 05:14:23 24° 86° (E) 05:20:18 435.800 - 435.900 CW/SSB, 435.910 FM
KITSAT 1 01 Aug 05:16:17 05:24:20 76° 242° (WSW) 05:32:29 435.175 FM
ISS 01 Aug 05:25:04 05:28:12 37° 312° (NW) 05:31:19 145.800 FM
PANSAT 01 Aug 05:28:37 05:31:55 27° 351° (N) 05:35:13 not established
MaSat-1 01 Aug 05:34:13 05:36:42 44° 114° (ESE) 05:39:24 437.345 MHz
Uosat F 01 Aug 05:36:58 05:40:36 20° 246° (WSW) 05:44:12 435.120 FM
Hamsat 01 Aug 05:47:19 05:51:28 47° 81° (E) 05:55:32 145.90 MHz
Saudisat 1A 01 Aug 06:14:23 06:18:44 66° 239° (WSW) 06:23:10 436.775 MHz
AO-7 01 Aug 06:28:54 06:34:53 22° 237° (WSW) 06:40:53 29.400 - 29.500 MHz
STRAND 1 01 Aug 06:31:11 06:36:12 57° 281° (W) 06:41:18 ?
JAS-2 01 Aug 06:52:23 06:59:36 64° 253° (WSW) 07:07:18 435.800 - 435.900 CW/SSB, 435.910 FM
SO-67 01 Aug 07:04:54 07:08:23 56° 80° (E) 07:11:49 435.3500 MHz FM
PANSAT 01 Aug 07:09:46 07:11:34 13° 339° (NNW) 07:13:22 not established
Sapphire 01 Aug 07:15:36 07:17:00 11° 135° (SE) 07:18:24 437.095 MHz 1200 baud AX-25 AFSK
KITSAT 1 01 Aug 07:16:08 07:21:08 17° 220° (SW) 07:26:11 435.175 FM
Hamsat 01 Aug 07:25:07 07:26:58 13° 246° (WSW) 07:28:49 145.90 MHz
PCSat 01 Aug 07:46:32 07:50:39 22° 128° (SE) 07:54:45 145.825 MHz
UKube-1 01 Aug 08:19:38 08:21:19 12° 87° (E) 08:23:00 145.840 MHz, 145.915 MHz
JAS-2 01 Aug 08:42:16 08:43:25 10° 238° (WSW) 08:44:34 435.800 - 435.900 CW/SSB, 435.910 FM
Sapphire 01 Aug 08:55:51 09:01:19 78° 117° (ESE) 09:06:43 437.095 MHz 1200 baud AX-25 AFSK
Oscar 11 01 Aug 08:59:45 09:02:50 19° 86° (E) 09:05:53 145.825 FM, Beacon 2401.500 USB
HO-68 01 Aug 09:11:17 09:18:33 73° 76° (ENE) 09:25:44 435.675 MHz FM
PCSat 01 Aug 09:29:05 09:34:18 48° 291° (WNW) 09:39:29 145.825 MHz
FUNcube-1 01 Aug 09:31:10 09:34:02 16° 87° (E) 09:36:51 145.950 - 145.970 MHz USB
UKube-1 01 Aug 09:53:29 09:57:46 50° 253° (WSW) 10:02:01 145.840 MHz, 145.915 MHz
SO-50 01 Aug 10:02:48 10:06:48 26° 69° (ENE) 10:10:48 436.795 FM
RS-15 01 Aug 10:09:52 10:16:46 18° 82° (E) 10:23:44 29.354 - 29.394 USB, Beacon 29.352 USB
Oscar 11 01 Aug 10:35:08 10:39:02 32° 251° (WSW) 10:42:54 145.825 FM, Beacon 2401.500 USB
Sapphire 01 Aug 10:42:33 10:43:59 11° 282° (WNW) 10:45:25 437.095 MHz 1200 baud AX-25 AFSK
HO-68 01 Aug 11:00:34 11:05:28 20° 240° (WSW) 11:10:22 435.675 MHz FM
FUNcube-1 01 Aug 11:06:14 11:10:35 40° 253° (WSW) 11:14:49 145.950 - 145.970 MHz USB
AO-40 01 Aug 11:10:28 13:18:15 57° 344° (NNW) 20:08:16 Beacon 2401.320
SO-50 01 Aug 11:42:53 11:47:14 32° 234° (SW) 11:51:34 436.795 FM
Oscar 19 01 Aug 11:43:00 11:45:56 15° 116° (ESE) 11:48:53 437.125 CW, 437.150 USB
UOSAT-12 01 Aug 11:44:38 11:47:39 18° 70° (ENE) 11:50:40 437.025 FM, 437.400 FM
Oscar 16 01 Aug 12:10:12 12:14:41 30° 111° (ESE) 12:19:12 437.025 USB, Beacon 2401.1428
RS-15 01 Aug 12:15:21 12:27:17 84° 64° (ENE) 12:39:39 29.354 - 29.394 USB, Beacon 29.352 USB
JAS-1B 01 Aug 12:26:16 12:27:42 11° 119° (ESE) 12:29:05 435.800 - 435.900 CW/SSB
ITAMSAT 1 01 Aug 12:39:08 12:43:15 24° 113° (ESE) 12:47:25 435.822 SSB
Uribyol 2 01 Aug 12:56:49 13:01:36 39° 109° (ESE) 13:06:27 436.500 FM
AO-27 01 Aug 12:58:34 13:03:20 38° 109° (ESE) 13:08:11 436.795 MHz FM
AO-Echo 01 Aug 13:07:14 13:11:42 44° 107° (ESE) 13:16:13 ?
KITSAT 1 01 Aug 13:13:40 13:20:46 32° 130° (SE) 13:27:48 435.175 FM
TMSAT-1 01 Aug 13:17:00 13:20:15 17° 116° (ESE) 13:23:30 436.925 FM
Oscar 19 01 Aug 13:19:35 13:24:43 59° 281° (W) 13:29:55 437.125 CW, 437.150 USB
UOSAT-12 01 Aug 13:23:14 13:27:28 39° 236° (SW) 13:31:40 437.025 FM, 437.400 FM
Gurwin Techsat 1B 01 Aug 13:41:49 13:46:45 40° 109° (ESE) 13:51:45 435.225 FM
AO-7 01 Aug 13:42:18 13:46:26 15° 128° (SE) 13:50:34 29.400 - 29.500 MHz
Oscar 16 01 Aug 13:49:28 13:53:56 29° 276° (W) 13:58:27 437.025 USB, Beacon 2401.1428
JAS-1B 01 Aug 14:11:12 14:17:42 86° 284° (WNW) 14:23:33 435.800 - 435.900 CW/SSB
ITAMSAT 1 01 Aug 14:17:48 14:22:31 35° 278° (W) 14:27:18 435.822 SSB
RS-15 01 Aug 14:31:04 14:41:18 31° 220° (SW) 14:51:47 29.354 - 29.394 USB, Beacon 29.352 USB
Uribyol 2 01 Aug 14:37:12 14:41:09 22° 275° (W) 14:45:09 436.500 FM
AO-27 01 Aug 14:38:59 14:42:55 22° 275° (W) 14:46:55 436.795 MHz FM
Saudisat 1A 01 Aug 14:44:21 14:48:30 37° 125° (SE) 14:52:37 436.775 MHz
AO-Echo 01 Aug 14:47:55 14:50:41 15° 273° (W) 14:53:28 ?
TMSAT-1 01 Aug 14:54:27 14:59:38 56° 280° (W) 15:04:55 436.925 FM
Uosat F 01 Aug 15:07:24 15:12:05 41° 109° (ESE) 15:16:50 435.120 FM
KITSAT 1 01 Aug 15:08:36 15:16:30 56° 291° (WNW) 15:24:20 435.175 FM
Gurwin Techsat 1B 01 Aug 15:22:47 15:26:49 22° 274° (W) 15:30:53 435.225 FM
AO-7 01 Aug 15:29:34 15:37:49 76° 109° (ESE) 15:46:10 29.400 - 29.500 MHz
OPAL 01 Aug 16:15:44 16:20:52 76° 76° (ENE) 16:25:53 ?
Saudisat 1A 01 Aug 16:24:42 16:27:47 19° 290° (WNW) 16:30:51 436.775 MHz
Hamsat 01 Aug 16:37:50 16:41:20 24° 110° (ESE) 16:44:51 145.90 MHz
Uosat F 01 Aug 16:47:29 16:51:00 19° 274° (W) 16:54:33 435.120 FM
RS-15 01 Aug 16:54:18 16:59:54 14° 185° (S) 17:05:30 29.354 - 29.394 USB, Beacon 29.352 USB
JAS-2 01 Aug 17:02:23 17:07:13 38° 111° (ESE) 17:12:29 435.800 - 435.900 CW/SSB, 435.910 FM
AO-7 01 Aug 17:25:44 17:31:15 19° 274° (W) 17:36:50 29.400 - 29.500 MHz
SO-67 01 Aug 17:36:52 17:38:15 12° 111° (ESE) 17:39:39 435.3500 MHz FM
OPAL 01 Aug 17:57:16 17:59:02 12° 240° (WSW) 18:00:47 ?
Hamsat 01 Aug 18:13:29 18:17:09 26° 276° (W) 18:20:50 145.90 MHz
SO-50 01 Aug 18:39:23 18:40:48 11° 136° (SE) 18:42:13 436.795 FM
STRAND 1 01 Aug 18:45:05 18:50:16 65° 78° (ENE) 18:55:24 ?
JAS-2 01 Aug 18:48:28 18:52:31 22° 273° (W) 18:56:49 435.800 - 435.900 CW/SSB, 435.910 FM
SO-67 01 Aug 19:07:50 19:10:59 31° 277° (W) 19:14:10 435.3500 MHz FM
RS-15 01 Aug 19:10:16 19:19:25 23° 148° (SSE) 19:28:16 29.354 - 29.394 USB, Beacon 29.352 USB
MaSat-1 01 Aug 19:22:20 19:25:56 46° 69° (ENE) 19:29:03 437.345 MHz
HO-68 01 Aug 19:36:23 19:42:53 39° 114° (ESE) 19:49:27 435.675 MHz FM
Oscar 11 01 Aug 19:53:57 19:54:55 11° 115° (ESE) 19:55:53 145.825 FM, Beacon 2401.500 USB
SO-50 01 Aug 20:17:25 20:22:00 84° 299° (WNW) 20:26:28 436.795 FM
STRAND 1 01 Aug 20:26:16 20:28:51 14° 243° (WSW) 20:31:25 ?
ISS 01 Aug 20:28:24 20:31:27 32° 48° (NE) 20:34:31 145.800 FM
UKube-1 01 Aug 20:45:22 20:49:44 89° 282° (WNW) 20:54:10 145.840 MHz, 145.915 MHz
